| time (UTC) | temp C | wind direction | speed KPH | gust KPH | rain 1hr cm | rain 24hr cm | rain mn cm | humidity % | barometer mb |
| 20260506050410 | 18 | 163 | 16.1 | 25.7 | 0.00 | 0.00 | 0.00 | ||
| 20260506044355 | 17 | 144 | 14.5 | 25.7 | 0.00 | 0.00 | 0.00 | ||
| 20260506043954 | 18 | 132 | 9.7 | 12.9 | 0.00 | 0.00 | 0.00 | ||
| 20260506043552 | 17 | 137 | 11.3 | 14.5 | 0.00 | 0.00 | 0.00 | ||
| 20260506043150 | 18 | 184 | 8.0 | 14.5 | 0.00 | 0.00 | 0.00 | ||
| 20260506042749 | 17 | 157 | 6.4 | 11.3 | 0.00 | 0.00 | 0.00 | ||
| 20260506042347 | 17 | 181 | 12.9 | 25.7 | 0.00 | 0.00 | 0.00 | ||
| 20260506041945 | 17 | 176 | 16.1 | 24.1 | 0.00 | 0.00 | 0.00 | ||
| 20260506041544 | 17 | 165 | 14.5 | 22.5 | 0.00 | 0.00 | 0.00 | ||
| 20260506041142 | 17 | 167 | 14.5 | 22.5 | 0.00 | 0.00 | 0.00 | ||
| 20260506040734 | 17 | 152 | 12.9 | 19.3 | 0.00 | 0.00 | 0.00 | ||
| 20260506040331 | 17 | 161 | 11.3 | 17.7 | 0.00 | 0.00 | 0.00 | ||
| 20260506035930 | 17 | 153 | 12.9 | 17.7 | 0.00 | 0.00 | 0.00 | ||
| 20260506035529 | 17 | 147 | 12.9 | 17.7 | 0.00 | 0.00 | 0.00 | ||
| 20260506035127 | 17 | 152 | 12.9 | 16.1 | 0.00 | 0.00 | 0.00 | ||
| 20260506034725 | 16 | 144 | 11.3 | 19.3 | 0.00 | 0.00 | 0.00 | ||
| 20260506034323 | 16 | 146 | 8.0 | 14.5 | 0.00 | 0.00 | 0.00 | ||
| 20260506033922 | 16 | 156 | 11.3 | 16.1 | 0.00 | 0.00 | 0.00 | ||
| 20260506033522 | 17 | 137 | 8.0 | 16.1 | 0.00 | 0.00 | 0.00 | ||
| 20260506033120 | 17 | 144 | 6.4 | 8.0 | 0.00 | 0.00 | 0.00 | ||
| 20260506032711 | 17 | 133 | 6.4 | 11.3 | 0.00 | 0.00 | 0.00 | ||
| 20260506032309 | 17 | 151 | 11.3 | 17.7 | 0.00 | 0.00 | 0.00 | ||
| 20260506031908 | 17 | 157 | 8.0 | 12.9 | 0.00 | 0.00 | 0.00 | ||
| 20260506031507 | 17 | 151 | 8.0 | 14.5 | 0.00 | 0.00 | 0.00 | ||
| 20260506031104 | 17 | 157 | 8.0 | 14.5 | 0.00 | 0.00 | 0.00 | ||
| 20260506030703 | 17 | 155 | 8.0 | 12.9 | 0.00 | 0.00 | 0.00 | ||
| 20260506030301 | 17 | 170 | 12.9 | 17.7 | 0.00 | 0.00 | 0.00 | ||
| 20260506025900 | 17 | 185 | 12.9 | 17.7 | 0.00 | 0.00 | 0.00 | ||
| 20260506025458 | 17 | 163 | 8.0 | 12.9 | 0.00 | 0.00 | 0.00 | ||
| 20260506025056 | 17 | 162 | 6.4 | 11.3 | 0.00 | 0.00 | 0.00 | ||
| 20260506024648 | 17 | 164 | 14.5 | 19.3 | 0.00 | 0.00 | 0.00 | ||
| 20260506024246 | 17 | 161 | 9.7 | 16.1 | 0.00 | 0.00 | 0.00 | ||
| 20260506023844 | 17 | 178 | 8.0 | 12.9 | 0.00 | 0.00 | 0.00 | ||
| 20260506023443 | 17 | 165 | 8.0 | 12.9 | 0.00 | 0.00 | 0.00 | ||
| 20260506023041 | 17 | 186 | 9.7 | 16.1 | 0.00 | 0.00 | 0.00 | ||
| 20260506022640 | 18 | 200 | 8.0 | 12.9 | 0.00 | 0.00 | 0.00 | ||
| 20260506022239 | 17 | 224 | 11.3 | 17.7 | 0.00 | 0.00 | 0.00 | ||
| 20260506021836 | 17 | 227 | 6.4 | 11.3 | 0.00 | 0.00 | 0.00 | ||
| 20260506021435 | 17 | 192 | 9.7 | 14.5 | 0.00 | 0.00 | 0.00 | ||
| 20260506021034 | 17 | 170 | 17.7 | 24.1 | 0.00 | 0.00 | 0.00 | ||
| 20260506020626 | 17 | 174 | 19.3 | 27.4 | 0.00 | 0.00 | 0.00 | ||
| 20260506020223 | 17 | 184 | 12.9 | 22.5 | 0.00 | 0.00 | 0.00 | ||
| 20260506015822 | 17 | 173 | 12.9 | 20.9 | 0.00 | 0.00 | 0.00 | ||
| 20260506015421 | 18 | 165 | 16.1 | 25.7 | 0.00 | 0.00 | 0.00 | ||
| 20260506015019 | 18 | 170 | 19.3 | 30.6 | 0.00 | 0.00 | 0.00 | ||
| 20260506014617 | 18 | 162 | 16.1 | 30.6 | 0.00 | 0.00 | 0.00 | ||
| 20260506014215 | 17 | 170 | 20.9 | 29.0 | 0.00 | 0.00 | 0.00 | ||
| 20260506013814 | 18 | 170 | 14.5 | 22.5 | 0.00 | 0.00 | 0.00 | ||
| 20260506013010 | 18 | 194 | 14.5 | 17.7 | 0.00 | 0.00 | 0.00 | ||
| 20260506012200 | 18 | 191 | 19.3 | 27.4 | 0.00 | 0.00 | 0.00 | ||
| 20260506011759 | 17 | 184 | 17.7 | 29.0 | 0.00 | 0.00 | 0.00 | ||
| 20260506011358 | 17 | 164 | 16.1 | 24.1 | 0.00 | 0.00 | 0.00 | ||
| 20260506010955 | 17 | 166 | 19.3 | 27.4 | 0.00 | 0.00 | 0.00 | ||
| 20260506010554 | 17 | 150 | 17.7 | 25.7 | 0.00 | 0.00 | 0.00 | ||
| 20260506010152 | 18 | 151 | 19.3 | 33.8 | 0.00 | 0.00 | 0.00 | ||
| 20260506005751 | 18 | 152 | 16.1 | 25.7 | 0.00 | 0.00 | 0.00 | ||
| 20260506005349 | 18 | 155 | 17.7 | 25.7 | 0.00 | 0.00 | 0.00 | ||
| 20260506004947 | 18 | 169 | 19.3 | 29.0 | 0.00 | 0.00 | 0.00 | ||
| 20260506004539 | 18 | 158 | 17.7 | 27.4 | 0.00 | 0.00 | 0.00 | ||
| 20260506004138 | 18 | 152 | 22.5 | 37.0 | 0.00 | 0.00 | 0.00 | ||
| 20260506003735 | 18 | 151 | 17.7 | 27.4 | 0.00 | 0.00 | 0.00 | ||
| 20260506003334 | 18 | 151 | 19.3 | 32.2 | 0.00 | 0.00 | 0.00 | ||
| 20260506002933 | 18 | 143 | 22.5 | 27.4 | 0.00 | 0.00 | 0.00 | ||
| 20260506002532 | 18 | 149 | 16.1 | 22.5 | 0.00 | 0.00 | 0.00 | ||
| 20260506002129 | 18 | 152 | 14.5 | 24.1 | 0.00 | 0.00 | 0.00 | ||
| 20260506001728 | 18 | 153 | 17.7 | 29.0 | 0.00 | 0.00 | 0.00 | ||
| 20260506001327 | 18 | 163 | 12.9 | 19.3 | 0.00 | 0.00 | 0.00 | ||
| 20260506000925 | 18 | 169 | 20.9 | 35.4 | 0.00 | 0.00 | 0.00 | ||
| 20260506000517 | 18 | 181 | 20.9 | 29.0 | 0.00 | 0.00 | 0.00 | ||
| 20260506000114 | 18 | 176 | 17.7 | 25.7 | 0.00 | 0.00 | 0.00 | ||
| 20260505235713 | 18 | 168 | 20.9 | 32.2 | 0.00 | 0.00 | 0.00 | ||
| 20260505235312 | 18 | 178 | 19.3 | 30.6 | 0.00 | 0.00 | 0.00 | ||
| 20260505234910 | 18 | 168 | 22.5 | 35.4 | 0.00 | 0.00 | 0.00 | ||
| 20260505234508 | 18 | 165 | 20.9 | 32.2 | 0.00 | 0.00 | 0.00 | ||
| 20260505234106 | 18 | 187 | 24.1 | 35.4 | 0.00 | 0.00 | 0.00 | ||
| 20260505233705 | 18 | 176 | 24.1 | 35.4 | 0.00 | 0.00 | 0.00 | ||
| 20260505233304 | 18 | 183 | 24.1 | 35.4 | 0.00 | 0.00 | 0.00 | ||
| 20260505232901 | 18 | 175 | 20.9 | 29.0 | 0.00 | 0.00 | 0.00 | ||
| 20260505232453 | 18 | 171 | 19.3 | 29.0 | 0.00 | 0.00 | 0.00 | ||
| 20260505232051 | 19 | 181 | 17.7 | 22.5 | 0.00 | 0.00 | 0.00 | ||
| 20260505231650 | 19 | 175 | 24.1 | 32.2 | 0.00 | 0.00 | 0.00 | ||
| 20260505231248 | 19 | 180 | 24.1 | 32.2 | 0.00 | 0.00 | 0.00 | ||
| 20260505230846 | 19 | 156 | 16.1 | 24.1 | 0.00 | 0.00 | 0.00 | ||
| 20260505230445 | 19 | 153 | 19.3 | 27.4 | 0.00 | 0.00 | 0.00 | ||
| 20260505230043 | 19 | 167 | 17.7 | 25.7 | 0.00 | 0.00 | 0.00 | ||
| 20260505225642 | 19 | 178 | 17.7 | 25.7 | 0.00 | 0.00 | 0.00 | ||
| 20260505225240 | 19 | 166 | 14.5 | 19.3 | 0.00 | 0.00 | 0.00 | ||
| 20260505224839 | 19 | 156 | 12.9 | 19.3 | 0.00 | 0.00 | 0.00 | ||
| 20260505224431 | 19 | 177 | 9.7 | 17.7 | 0.00 | 0.00 | 0.00 | ||
| 20260505224029 | 19 | 157 | 6.4 | 14.5 | 0.00 | 0.00 | 0.00 | ||
| 20260505223626 | 19 | 177 | 12.9 | 16.1 | 0.00 | 0.00 | 0.00 | ||
| 20260505223225 | 20 | 181 | 14.5 | 20.9 | 0.00 | 0.00 | 0.00 | ||
| 20260505222824 | 20 | 164 | 20.9 | 29.0 | 0.00 | 0.00 | 0.00 | ||
| 20260505222423 | 20 | 151 | 19.3 | 33.8 | 0.00 | 0.00 | 0.00 | ||
| 20260505222020 | 20 | 167 | 14.5 | 19.3 | 0.00 | 0.00 | 0.00 | ||
| 20260505221618 | 20 | 176 | 14.5 | 20.9 | 0.00 | 0.00 | 0.00 | ||
| 20260505221217 | 20 | 152 | 17.7 | 24.1 | 0.00 | 0.00 | 0.00 | ||
| 20260505220815 | 20 | 173 | 19.3 | 29.0 | 0.00 | 0.00 | 0.00 | ||
| 20260505220405 | 20 | 165 | 14.5 | 17.7 | 0.00 | 0.00 | 0.00 | ||
| 20260505220004 | 20 | 153 | 12.9 | 25.7 | 0.00 | 0.00 | 0.00 | ||
| 20260505215602 | 20 | 171 | 20.9 | 30.6 | 0.00 | 0.00 | 0.00 | ||
| 20260505215202 | 20 | 154 | 16.1 | 20.9 | 0.00 | 0.00 | 0.00 | ||
| 20260505214800 | 20 | 166 | 14.5 | 20.9 | 0.00 | 0.00 | 0.00 | ||
| 20260505214358 | 20 | 164 | 25.7 | 33.8 | 0.00 | 0.00 | 0.00 | ||
| 20260505213956 | 20 | 152 | 17.7 | 27.4 | 0.00 | 0.00 | 0.00 | ||
| 20260505213555 | 20 | 151 | 16.1 | 25.7 | 0.00 | 0.00 | 0.00 | ||
| 20260505213154 | 20 | 151 | 17.7 | 24.1 | 0.00 | 0.00 | 0.00 | ||
| 20260505212751 | 20 | 143 | 14.5 | 25.7 | 0.00 | 0.00 | 0.00 | ||
| 20260505212343 | 20 | 150 | 12.9 | 20.9 | 0.00 | 0.00 | 0.00 | ||
| 20260505211941 | 20 | 158 | 16.1 | 20.9 | 0.00 | 0.00 | 0.00 | ||
| 20260505211540 | 20 | 148 | 14.5 | 17.7 | 0.00 | 0.00 | 0.00 | ||
| 20260505211138 | 20 | 150 | 16.1 | 22.5 | 0.00 | 0.00 | 0.00 | ||
| 20260505210736 | 20 | 154 | 12.9 | 20.9 | 0.00 | 0.00 | 0.00 | ||
| 20260505210335 | 20 | 151 | 11.3 | 19.3 | 0.00 | 0.00 | 0.00 | ||
| 20260505205933 | 20 | 148 | 16.1 | 22.5 | 0.00 | 0.00 | 0.00 | ||
| 20260505205531 | 20 | 173 | 17.7 | 25.7 | 0.00 | 0.00 | 0.00 | ||
| 20260505205130 | 20 | 178 | 17.7 | 22.5 | 0.00 | 0.00 | 0.00 | ||
| 20260505204728 | 21 | 182 | 22.5 | 32.2 | 0.00 | 0.00 | 0.00 | ||
| 20260505204320 | 20 | 175 | 17.7 | 29.0 | 0.00 | 0.00 | 0.00 | ||
| 20260505203918 | 21 | 186 | 17.7 | 25.7 | 0.00 | 0.00 | 0.00 | ||
| 20260505203516 | 21 | 161 | 22.5 | 29.0 | 0.00 | 0.00 | 0.00 | ||
| 20260505203115 | 21 | 192 | 19.3 | 32.2 | 0.00 | 0.00 | 0.00 | ||
| 20260505202713 | 21 | 193 | 19.3 | 32.2 | 0.00 | 0.00 | 0.00 | ||
| 20260505202312 | 21 | 172 | 17.7 | 24.1 | 0.00 | 0.00 | 0.00 | ||
| 20260505201910 | 21 | 193 | 12.9 | 19.3 | 0.00 | 0.00 | 0.00 | ||
| 20260505201509 | 21 | 181 | 17.7 | 24.1 | 0.00 | 0.00 | 0.00 | ||
| 20260505201108 | 21 | 196 | 20.9 | 40.2 | 0.00 | 0.00 | 0.00 | ||
| 20260505200706 | 21 | 172 | 25.7 | 37.0 | 0.00 | 0.00 | 0.00 | ||
| 20260505200257 | 21 | 196 | 19.3 | 30.6 | 0.00 | 0.00 | 0.00 | ||
| 20260505195855 | 21 | 176 | 16.1 | 30.6 | 0.00 | 0.00 | 0.00 | ||
| 20260505195454 | 21 | 194 | 14.5 | 19.3 | 0.00 | 0.00 | 0.00 | ||
| 20260505195053 | 21 | 173 | 16.1 | 25.7 | 0.00 | 0.00 | 0.00 | ||
| 20260505194650 | 21 | 192 | 14.5 | 19.3 | 0.00 | 0.00 | 0.00 | ||
| 20260505194249 | 21 | 180 | 17.7 | 27.4 | 0.00 | 0.00 | 0.00 | ||
| 20260505193847 | 21 | 163 | 17.7 | 22.5 | 0.00 | 0.00 | 0.00 | ||
| 20260505193446 | 21 | 170 | 14.5 | 27.4 | 0.00 | 0.00 | 0.00 | ||
| 20260505193045 | 21 | 173 | 14.5 | 19.3 | 0.00 | 0.00 | 0.00 | ||
| 20260505192642 | 21 | 164 | 9.7 | 16.1 | 0.00 | 0.00 | 0.00 | ||
| 20260505192234 | 22 | 180 | 9.7 | 14.5 | 0.00 | 0.00 | 0.00 | ||
| 20260505191832 | 22 | 177 | 14.5 | 29.0 | 0.00 | 0.00 | 0.00 | ||
| 20260505191431 | 22 | 162 | 8.0 | 12.9 | 0.00 | 0.00 | 0.00 | ||
| 20260505191029 | 22 | 186 | 14.5 | 19.3 | 0.00 | 0.00 | 0.00 | ||
| 20260505190627 | 22 | 187 | 14.5 | 19.3 | 0.00 | 0.00 | 0.00 | ||
| 20260505190226 | 22 | 173 | 12.9 | 19.3 | 0.00 | 0.00 | 0.00 | ||
| 20260505185825 | 22 | 182 | 14.5 | 17.7 | 0.00 | 0.00 | 0.00 | ||
| 20260505185422 | 22 | 184 | 16.1 | 25.7 | 0.00 | 0.00 | 0.00 | ||
| 20260505185021 | 22 | 202 | 20.9 | 29.0 | 0.00 | 0.00 | 0.00 | ||
| 20260505184620 | 22 | 182 | 16.1 | 25.7 | 0.00 | 0.00 | 0.00 | ||
| 20260505184212 | 22 | 178 | 16.1 | 19.3 | 0.00 | 0.00 | 0.00 | ||
| 20260505183809 | 22 | 183 | 11.3 | 16.1 | 0.00 | 0.00 | 0.00 | ||
| 20260505183408 | 22 | 195 | 16.1 | 22.5 | 0.00 | 0.00 | 0.00 | ||
| 20260505183007 | 22 | 187 | 11.3 | 14.5 | 0.00 | 0.00 | 0.00 | ||
| 20260505182605 | 22 | 189 | 14.5 | 20.9 | 0.00 | 0.00 | 0.00 | ||
| 20260505182204 | 22 | 177 | 12.9 | 19.3 | 0.00 | 0.00 | 0.00 | ||
| 20260505181801 | 22 | 183 | 12.9 | 17.7 | 0.00 | 0.00 | 0.00 | ||
| 20260505181400 | 23 | 177 | 14.5 | 22.5 | 0.00 | 0.00 | 0.00 | ||
| 20260505180959 | 23 | 187 | 12.9 | 17.7 | 0.00 | 0.00 | 0.00 | ||
| 20260505180557 | 23 | 182 | 17.7 | 25.7 | 0.00 | 0.00 | 0.00 | ||
| 20260505180148 | 23 | 175 | 17.7 | 24.1 | 0.00 | 0.00 | 0.00 | ||
| 20260505175746 | 23 | 175 | 17.7 | 25.7 | 0.00 | 0.00 | 0.00 | ||
| 20260505175345 | 23 | 175 | 16.1 | 22.5 | 0.00 | 0.00 | 0.00 | ||
| 20260505174944 | 23 | 166 | 16.1 | 25.7 | 0.00 | 0.00 | 0.00 | ||
| 20260505174541 | 23 | 168 | 16.1 | 20.9 | 0.00 | 0.00 | 0.00 | ||
| 20260505174140 | 23 | 165 | 16.1 | 22.5 | 0.00 | 0.00 | 0.00 | ||
| 20260505173738 | 23 | 158 | 20.9 | 33.8 | 0.00 | 0.00 | 0.00 | ||
| 20260505173337 | 23 | 169 | 17.7 | 27.4 | 0.00 | 0.00 | 0.00 | ||
| 20260505172935 | 23 | 192 | 14.5 | 25.7 | 0.00 | 0.00 | 0.00 | ||
| 20260505172533 | 23 | 186 | 17.7 | 29.0 | 0.00 | 0.00 | 0.00 | ||
| 20260505172126 | 24 | 200 | 9.7 | 12.9 | 0.00 | 0.00 | 0.00 | ||
| 20260505171723 | 24 | 185 | 11.3 | 17.7 | 0.00 | 0.00 | 0.00 | ||
| 20260505171322 | 24 | 200 | 16.1 | 22.5 | 0.00 | 0.00 | 0.00 | ||
| 20260505170920 | 24 | 187 | 17.7 | 24.1 | 0.00 | 0.00 | 0.00 | ||
| 20260505170518 | 24 | 183 | 14.5 | 19.3 | 0.00 | 0.00 | 0.00 | ||
| 20260505165716 | 24 | 202 | 19.3 | 32.2 | 0.00 | 0.00 | 0.00 | ||
| 20260505165313 | 25 | 182 | 17.7 | 22.5 | 0.00 | 0.00 | 0.00 | ||
| 20260505164511 | 25 | 182 | 20.9 | 30.6 | 0.00 | 0.00 | 0.00 | ||
| 20260505164103 | 25 | 188 | 19.3 | 32.2 | 0.00 | 0.00 | 0.00 | ||
| 20260505163700 | 25 | 178 | 27.4 | 37.0 | 0.00 | 0.00 | 0.00 | ||
| 20260505163259 | 25 | 170 | 29.0 | 45.1 | 0.00 | 0.00 | 0.00 | ||
| 20260505162858 | 26 | 161 | 20.9 | 35.4 | 0.00 | 0.00 | 0.00 | ||
| 20260505162456 | 26 | 176 | 16.1 | 22.5 | 0.00 | 0.00 | 0.00 | ||
| 20260505162054 | 26 | 185 | 22.5 | 30.6 | 0.00 | 0.00 | 0.00 | ||
| 20260505161652 | 27 | 169 | 19.3 | 30.6 | 0.00 | 0.00 | 0.00 | ||
| 20260505161251 | 27 | 186 | 22.5 | 29.0 | 0.00 | 0.00 | 0.00 | ||
| 20260505160850 | 27 | 169 | 22.5 | 27.4 | 0.00 | 0.00 | 0.00 | ||
| 20260505160448 | 27 | 180 | 17.7 | 24.1 | 0.00 | 0.00 | 0.00 | ||
| 20260505153228 | 26 | 172 | 22.5 | 30.6 | 0.00 | 0.00 | 0.00 | ||
| 20260505152826 | 26 | 171 | 25.7 | 35.4 | 0.00 | 0.00 | 0.00 | ||
| 20260505152424 | 26 | 163 | 20.9 | 37.0 | 0.00 | 0.00 | 0.00 | ||
| 20260505152016 | 26 | 165 | 32.2 | 49.9 | 0.00 | 0.00 | 0.00 | ||
| 20260505151615 | 26 | 145 | 27.4 | 46.7 | 0.00 | 0.00 | 0.00 | ||
| 20260505151212 | 26 | 163 | 24.1 | 37.0 | 0.00 | 0.00 | 0.00 | ||
| 20260505150811 | 26 | 171 | 29.0 | 40.2 | 0.00 | 0.00 | 0.00 | ||
| 20260505150409 | 27 | 160 | 24.1 | 33.8 | 0.00 | 0.00 | 0.00 | ||
| 20260505140337 | 26 | 162 | 17.7 | 33.8 | 0.00 | 0.00 | 0.00 | ||
| 20260505130259 | 27 | 151 | 32.2 | 45.1 | 0.00 | 0.00 | 0.00 | ||
| 20260505124653 | 27 | 175 | 29.0 | 43.5 | 0.00 | 0.00 | 0.00 | ||
| 20260505124251 | 27 | 177 | 24.1 | 35.4 | 0.00 | 0.00 | 0.00 | ||
| 20260505123843 | 27 | 154 | 24.1 | 37.0 | 0.00 | 0.00 | 0.00 | ||
| 20260505123440 | 27 | 175 | 29.0 | 37.0 | 0.00 | 0.00 | 0.00 | ||
| 20260505123039 | 27 | 160 | 32.2 | 48.3 | 0.00 | 0.00 | 0.00 | ||
| 20260505122638 | 28 | 161 | 24.1 | 37.0 | 0.00 | 0.00 | 0.00 | ||
| 20260505122236 | 27 | 178 | 25.7 | 38.6 | 0.00 | 0.00 | 0.00 | ||
| 20260505121834 | 27 | 165 | 32.2 | 48.3 | 0.00 | 0.00 | 0.00 | ||
| 20260505121432 | 27 | 169 | 38.6 | 53.1 | 0.00 | 0.00 | 0.00 | ||
| 20260505121031 | 27 | 185 | 24.1 | 35.4 | 0.00 | 0.00 | 0.00 | ||
| 20260505120630 | 27 | 141 | 17.7 | 24.1 | 0.00 | 0.00 | 0.00 | ||
| 20260505120227 | 27 | 154 | 19.3 | 27.4 | 0.00 | 0.00 | 0.00 | ||
| 20260505115819 | 26 | 175 | 14.5 | 22.5 | 0.00 | 0.00 | 0.00 | ||
| 20260505115417 | 26 | 180 | 19.3 | 25.7 | 0.00 | 0.00 | 0.00 | ||
| 20260505115016 | 26 | 180 | 25.7 | 33.8 | 0.00 | 0.00 | 0.00 | ||
| 20260505114614 | 26 | 141 | 24.1 | 41.8 | 0.00 | 0.00 | 0.00 | ||
| 20260505114212 | 26 | 147 | 22.5 | 38.6 | 0.00 | 0.00 | 0.00 | ||
| 20260505113811 | 26 | 140 | 17.7 | 27.4 | 0.00 | 0.00 | 0.00 | ||
| 20260505113409 | 25 | 162 | 22.5 | 35.4 | 0.00 | 0.00 | 0.00 | ||
| 20260505113008 | 25 | 167 | 20.9 | 29.0 | 0.00 | 0.00 | 0.00 | ||
| 20260505112606 | 25 | 154 | 17.7 | 30.6 | 0.00 | 0.00 | 0.00 | ||
| 20260505112204 | 25 | 165 | 20.9 | 29.0 | 0.00 | 0.00 | 0.00 | ||
| 20260505111756 | 25 | 181 | 27.4 | 38.6 | 0.00 | 0.00 | 0.00 | ||
| 20260505111355 | 26 | 174 | 24.1 | 40.2 | 0.00 | 0.00 | 0.00 | ||
| 20260505110953 | 26 | 176 | 25.7 | 40.2 | 0.00 | 0.00 | 0.00 | ||
| 20260505110552 | 25 | 172 | 25.7 | 35.4 | 0.00 | 0.00 | 0.00 | ||
| 20260505110150 | 25 | 184 | 17.7 | 29.0 | 0.00 | 0.00 | 0.00 | ||
| 20260505101725 | 25 | 152 | 17.7 | 25.7 | 0.00 | 0.00 | 0.00 | ||
| 20260505101323 | 25 | 165 | 22.5 | 37.0 | 0.00 | 0.00 | 0.00 | ||
| 20260505100922 | 25 | 151 | 27.4 | 45.1 | 0.00 | 0.00 | 0.00 | ||
| 20260505100521 | 25 | 178 | 29.0 | 38.6 | 0.00 | 0.00 | 0.00 | ||
| 20260505100118 | 25 | 163 | 27.4 | 37.0 | 0.00 | 0.00 | 0.00 | ||
| 20260505095710 | 26 | 157 | 27.4 | 41.8 | 0.00 | 0.00 | 0.00 | ||
| 20260505095309 | 26 | 154 | 25.7 | 38.6 | 0.00 | 0.00 | 0.00 | ||
| 20260505094908 | 25 | 165 | 29.0 | 49.9 | 0.00 | 0.00 | 0.00 | ||
| 20260505094505 | 25 | 166 | 37.0 | 48.3 | 0.00 | 0.00 | 0.00 | ||
| 20260505094104 | 25 | 177 | 35.4 | 46.7 | 0.00 | 0.00 | 0.00 | ||
| 20260505093739 | 25 | 182 | 27.4 | 46.7 | 0.00 | 0.00 | 0.00 | ||
| 20260505093703 | 25 | 182 | 27.4 | 46.7 | 0.00 | 0.00 | 0.00 | ||
| 20260505093301 | 26 | 166 | 33.8 | 51.5 | 0.00 | 0.00 | 0.00 | ||
| 20260505092859 | 25 | 153 | 24.1 | 40.2 | 0.00 | 0.00 | 0.00 | ||
| 20260505092458 | 26 | 157 | 25.7 | 35.4 | 0.00 | 0.00 | 0.00 | ||
| 20260505092056 | 25 | 169 | 30.6 | 41.8 | 0.00 | 0.00 | 0.00 | ||
| 20260505091648 | 25 | 168 | 32.2 | 49.9 | 0.00 | 0.00 | 0.00 | ||
| 20260505091246 | 25 | 155 | 25.7 | 41.8 | 0.00 | 0.00 | 0.00 | ||
| 20260505090844 | 25 | 163 | 29.0 | 37.0 | 0.00 | 0.00 | 0.00 | ||
| 20260505090443 | 25 | 147 | 25.7 | 41.8 | 0.00 | 0.00 | 0.00 | ||
| 20260505090041 | 25 | 146 | 27.4 | 37.0 | 0.00 | 0.00 | 0.00 | ||
| 20260505085640 | 25 | 155 | 20.9 | 43.5 | 0.00 | 0.00 | 0.00 | ||
| 20260505085237 | 25 | 150 | 24.1 | 38.6 | 0.00 | 0.00 | 0.00 | ||
| 20260505084836 | 25 | 155 | 25.7 | 33.8 | 0.00 | 0.00 | 0.00 | ||
| 20260505084435 | 25 | 159 | 19.3 | 29.0 | 0.00 | 0.00 | 0.00 | ||
| 20260505084033 | 24 | 150 | 17.7 | 32.2 | 0.00 | 0.00 | 0.00 | ||
| 20260505083624 | 24 | 153 | 19.3 | 33.8 | 0.00 | 0.00 | 0.00 | ||
| 20260505083222 | 24 | 167 | 29.0 | 46.7 | 0.00 | 0.00 | 0.00 | ||
| 20260505082821 | 25 | 146 | 17.7 | 25.7 | 0.00 | 0.00 | 0.00 | ||
| 20260505082420 | 24 | 149 | 22.5 | 32.2 | 0.00 | 0.00 | 0.00 | ||
| 20260505082017 | 23 | 137 | 24.1 | 37.0 | 0.00 | 0.00 | 0.00 | ||
| 20260505081616 | 24 | 136 | 22.5 | 37.0 | 0.00 | 0.00 | 0.00 | ||
| 20260505081215 | 24 | 160 | 24.1 | 43.5 | 0.00 | 0.00 | 0.00 | ||
| 20260505080814 | 23 | 140 | 25.7 | 37.0 | 0.00 | 0.00 | 0.00 | ||
| 20260505080413 | 23 | 167 | 22.5 | 32.2 | 0.00 | 0.00 | 0.00 | ||
| 20260505080010 | 23 | 155 | 25.7 | 37.0 | 0.00 | 0.00 | 0.00 | ||
| 20260505075602 | 23 | 161 | 12.9 | 19.3 | 0.00 | 0.00 | 0.00 | ||
| 20260505075200 | 23 | 154 | 20.9 | 30.6 | 0.00 | 0.00 | 0.00 | ||
| 20260505074759 | 23 | 154 | 19.3 | 24.1 | 0.00 | 0.00 | 0.00 | ||
| 20260505074357 | 23 | 133 | 17.7 | 24.1 | 0.00 | 0.00 | 0.00 | ||
| 20260505073955 | 23 | 143 | 17.7 | 27.4 | 0.00 | 0.00 | 0.00 | ||
| 20260505073554 | 23 | 156 | 20.9 | 27.4 | 0.00 | 0.00 | 0.00 | ||
| 20260505073152 | 23 | 134 | 19.3 | 32.2 | 0.00 | 0.00 | 0.00 | ||
| 20260505072750 | 23 | 145 | 20.9 | 33.8 | 0.00 | 0.00 | 0.00 | ||
| 20260505072349 | 23 | 141 | 19.3 | 30.6 | 0.00 | 0.00 | 0.00 | ||
| 20260505071947 | 23 | 141 | 20.9 | 30.6 | 0.00 | 0.00 | 0.00 | ||
| 20260505071539 | 23 | 145 | 22.5 | 33.8 | 0.00 | 0.00 | 0.00 | ||
| 20260505071136 | 24 | 148 | 19.3 | 35.4 | 0.00 | 0.00 | 0.00 | ||
| 20260505070735 | 26 | 140 | 25.7 | 37.0 | 0.00 | 0.00 | 0.00 | ||
| 20260505070334 | 25 | 152 | 24.1 | 33.8 | 0.00 | 0.00 | 0.00 | ||
| 20260505065932 | 23 | 148 | 22.5 | 30.6 | 0.00 | 0.00 | 0.00 | ||
| 20260505065128 | 22 | 150 | 22.5 | 30.6 | 0.00 | 0.00 | 0.00 | ||
| 20260505064728 | 22 | 140 | 19.3 | 30.6 | 0.00 | 0.00 | 0.00 | ||
| 20260505064327 | 22 | 145 | 20.9 | 35.4 | 0.00 | 0.00 | 0.00 | ||
| 20260505063516 | 22 | 135 | 20.9 | 35.4 | 0.00 | 0.00 | 0.00 | ||
| 20260505063114 | 21 | 137 | 19.3 | 29.0 | 0.00 | 0.00 | 0.00 | ||
| 20260505062713 | 21 | 132 | 19.3 | 29.0 | 0.00 | 0.00 | 0.00 | ||
| 20260505062312 | 21 | 142 | 20.9 | 32.2 | 0.00 | 0.00 | 0.00 | ||
| 20260505061909 | 21 | 132 | 17.7 | 24.1 | 0.00 | 0.00 | 0.00 | ||
| 20260505061508 | 21 | 143 | 16.1 | 25.7 | 0.00 | 0.00 | 0.00 | ||
| 20260505061106 | 21 | 135 | 16.1 | 27.4 | 0.00 | 0.00 | 0.00 | ||
| 20260505060705 | 21 | 124 | 19.3 | 32.2 | 0.00 | 0.00 | 0.00 | ||
| 20260505060303 | 21 | 138 | 17.7 | 27.4 | 0.00 | 0.00 | 0.00 | ||
| 20260505055901 | 21 | 131 | 19.3 | 29.0 | 0.00 | 0.00 | 0.00 | ||
| 20260505055453 | 21 | 134 | 16.1 | 25.7 | 0.00 | 0.00 | 0.00 | ||
| 20260505055051 | 21 | 125 | 19.3 | 27.4 | 0.00 | 0.00 | 0.00 | ||
| 20260505054650 | 21 | 127 | 14.5 | 22.5 | 0.00 | 0.00 | 0.00 | ||
| 20260505054248 | 21 | 131 | 17.7 | 29.0 | 0.00 | 0.00 | 0.00 | ||
| 20260505053846 | 21 | 121 | 14.5 | 19.3 | 0.00 | 0.00 | 0.00 | ||
| 20260505053445 | 21 | 123 | 12.9 | 25.7 | 0.00 | 0.00 | 0.00 | ||
| 20260505053043 | 21 | 122 | 14.5 | 20.9 | 0.00 | 0.00 | 0.00 | ||
| 20260505052641 | 21 | 122 | 14.5 | 19.3 | 0.00 | 0.00 | 0.00 | ||
| 20260505052240 | 21 | 121 | 12.9 | 19.3 | 0.00 | 0.00 | 0.00 | ||
| 20260505051838 | 20 | 124 | 12.9 | 19.3 | 0.00 | 0.00 | 0.00 | ||
| 20260505051430 | 20 | 127 | 16.1 | 25.7 | 0.00 | 0.00 | 0.00 | ||
| 20260505051027 | 20 | 124 | 14.5 | 20.9 | 0.00 | 0.00 | 0.00 |